Vancouver, WA
on Thursday, December 6, 2012

Thursday
Previous Day Next Day
Daily Summary
 ActualAverageRecord
Temperature
Mean Temperature °F 42°F  
Max Temperature 49°F 48°F 61°F (1938)
Min Temperature 32°F 36°F 15°F (1909)
Degree Days
Heating Degree Days 24    
Month to date heating degree days 103  
Since 1 July heating degree days 925  
Cooling Degree Days 0    
Month to date cooling degree days 0  
Year to date cooling degree days 398  
Moisture
Dew Point 39°F   
Average Humidity 84    
Maximum Humidity 96    
Minimum Humidity 71    
Precipitation
Precipitation 0.01 in 0.19 in 2.68 in (1933)
Month to date precipitation 2.23 1.19  
Year to date precipitation 40.55 33.56  
Snow
Snow 0.00 in in in ()
Snow Depth 0.00 in   
Wind
Wind Speed 5 mph   
Max Wind Speed 12 mph   
Max Gust Speed 18 mph   
Visibility 9 miles   
Events Rain   

Key: T is trace of precipitation, MM is missing value
Source: NWS Daily Summary
Time(PST)TemperatureDew PointHumidity Pressure Visibility Wind DirectionWind SpeedGust SpeedPrecipitationEvents Conditions
12:53 AM 35.1°F 34.0°F 96% 30.25 in 9.0 miles Calm Calm - 0.01 in   Clear
1:40 AM 33.8°F 32.0°F 93% 30.24 in 1.8 miles Calm Calm - N/A   Partly Cloudy
1:53 AM 33.1°F 32.0°F 96% 30.25 in 2.5 miles Calm Calm - N/A   Mostly Cloudy
2:00 AM 33.8°F 32.0°F 93% 30.25 in 1.2 miles Calm Calm - N/A   Mostly Cloudy
2:06 AM 33.8°F 33.8°F 100% 30.25 in 2.0 miles Calm Calm - N/A   Overcast
2:14 AM 33.8°F 32.0°F 93% 30.25 in 6.0 miles Calm Calm - N/A   Overcast
2:53 AM 37.0°F 36.0°F 96% 30.25 in 10.0 miles Calm Calm - N/A   Overcast
3:53 AM 37.9°F 36.0°F 93% 30.24 in 8.0 miles Calm Calm - N/A   Overcast
4:53 AM 41.0°F 39.0°F 93% 30.23 in 10.0 miles Calm Calm - N/A   Overcast
5:53 AM 42.1°F 39.0°F 89% 30.22 in 10.0 miles SE 3.5 mph - N/A   Overcast
6:53 AM 43.0°F 37.9°F 82% 30.22 in 10.0 miles Calm Calm - N/A   Overcast
7:53 AM 44.1°F 37.9°F 79% 30.22 in 10.0 miles South 4.6 mph - N/A   Overcast
8:53 AM 44.1°F 37.9°F 79% 30.22 in 10.0 miles South 5.8 mph - N/A   Overcast
9:53 AM 45.0°F 37.9°F 76% 30.23 in 10.0 miles Variable 6.9 mph - N/A   Overcast
10:53 AM 46.0°F 37.9°F 73% 30.22 in 10.0 miles SSW 10.4 mph - N/A   Overcast
11:53 AM 46.9°F 39.0°F 74% 30.20 in 10.0 miles SSW 9.2 mph - N/A   Overcast
12:50 PM 48.2°F 39.2°F 71% 30.19 in 10.0 miles SSW 11.5 mph 17.3 mph N/A   Overcast
12:53 PM 48.0°F 39.0°F 71% 30.19 in 10.0 miles SSW 9.2 mph 17.3 mph N/A   Overcast
1:17 PM 48.2°F 39.2°F 71% 30.17 in 10.0 miles South 8.1 mph - N/A   Overcast
1:34 PM 48.2°F 39.2°F 71% 30.17 in 10.0 miles Variable 6.9 mph - N/A   Overcast
1:44 PM 48.2°F 39.2°F 71% 30.16 in 10.0 miles South 8.1 mph - N/A   Overcast
1:53 PM 48.9°F 39.0°F 69% 30.17 in 10.0 miles South 9.2 mph 17.3 mph N/A   Overcast
2:53 PM 48.9°F 39.9°F 71% 30.16 in 10.0 miles South 9.2 mph - N/A   Overcast
3:15 PM 48.2°F 41.0°F 76% 30.16 in 10.0 miles SSW 9.2 mph 17.3 mph 0.00 in Rain Light Rain
3:53 PM 48.9°F 41.0°F 74% 30.16 in 10.0 miles South 8.1 mph - 0.00 in   Overcast
4:53 PM 48.0°F 41.0°F 77% 30.16 in 10.0 miles SSW 6.9 mph - N/A   Overcast
5:53 PM 48.0°F 41.0°F 77% 30.17 in 10.0 miles SSW 5.8 mph - 0.00 in   Overcast
6:07 PM 46.4°F 42.8°F 87% 30.17 in 10.0 miles SSW 8.1 mph - 0.00 in Rain Light Rain
6:19 PM 46.4°F 42.8°F 87% 30.17 in 10.0 miles SSW 8.1 mph - 0.00 in Rain Light Rain
6:45 PM 46.4°F 42.8°F 87% 30.17 in 10.0 miles SSW 6.9 mph - 0.00 in Rain Light Rain
6:53 PM 46.9°F 42.1°F 83% 30.18 in 10.0 miles SSW 6.9 mph - 0.00 in   Overcast
7:19 PM 46.4°F 42.8°F 87% 30.18 in 10.0 miles Variable 6.9 mph - N/A   Overcast
7:53 PM 46.0°F 42.1°F 86% 30.19 in 10.0 miles SSW 4.6 mph - N/A   Overcast
8:53 PM 46.9°F 42.1°F 83% 30.20 in 10.0 miles SSW 6.9 mph - 0.00 in Rain Light Rain
9:53 PM 46.0°F 42.1°F 86% 30.19 in 10.0 miles South 6.9 mph - 0.00 in   Mostly Cloudy
10:41 PM 46.4°F 42.8°F 87% 30.21 in 10.0 miles South 6.9 mph - N/A   Overcast
10:51 PM 46.4°F 42.8°F 87% 30.21 in 10.0 miles South 3.5 mph - N/A   Overcast
10:53 PM 46.9°F 42.1°F 83% 30.21 in 10.0 miles South 5.8 mph - N/A   Overcast
11:50 PM 46.4°F 42.8°F 87% 30.21 in 10.0 miles South 5.8 mph - N/A   Overcast
11:53 PM 46.0°F 42.1°F 86% 30.21 in 10.0 miles South 6.9 mph - N/A   Overcast
Moon Phase
Dec. 06 Dec. 13 Dec. 20 Dec. 28 Jan. 04
Sunrise:07:36 AM (PST) Moon Rise:No Moon Rise/
Sunset:04:26 PM (PST) Moon Set:12:14 PM (PST)12/6

Copyright © 2014 The Weather Underground, Inc.